Weather in Dzhamku

Russia / Khabarovsk Krai     51°07′15″N   134°38′40″E
temp.,
°C
wind,
m/s
gust,
m/s
humid.,
%
clouds,
%
prec.,
mm/h
press.,
hPa
HPBL,
m
27 february, sat
sat2701:00−21sw229226 0.0 103220
04:00−22ssw228913 0.0 103220
07:00−21ssw228518 0.0 103120
10:00−16sw247743 0.0 1030184
13:00−9sw2462100 0.0 1027379
16:00−7sw2468100 0.0 1023550
19:00−12se118399 0.0 102021
22:00−13sw1289100 0.1 101822
28 february, sun
sun2801:00−12sw2896100 0.9 1015461
04:00−13sw31595100 1.2 1013613
07:00−14sw5169063 0.0 1014520
10:00−12wsw6128231 0.0 1014776
13:00−11wsw812709 0.0 10151139
16:00−13wsw811705 0.0 10161101
19:00−18sw714783 0.0 1021716
22:00−22sw413862 0.0 1024489
1 march, mon
mon101:00−26sw359232 0.0 1025142
04:00−28sw359217 0.0 1027142
07:00−28sw38900 0.0 1029255
10:00−25wsw511790 0.0 1029703
13:00−22wsw7117127 0.0 10281096
16:00−20wsw8126314 0.0 10271449
19:00−23sw8137113 0.0 1029877
22:00−25wsw513807 0.0 1031592
2 march, tue
tue201:00−27sw411860 0.0 1032452
04:00−30sw37860 0.0 1032196
07:00−32sw23880 0.0 103349
10:00−27wsw39790 0.0 1032452
13:00−22wsw69690 0.0 10301039
16:00−20sw586517 0.0 10291347
19:00−23sw3107812 0.0 1030259
22:00−27ssw23786 0.0 103224
3 march, wed
wed301:00−28ssw22810 0.0 103119
04:00−28ssw22830 0.0 102919
07:00−27ssw12850 0.0 102819
10:00−20wsw128211 0.0 1025182
13:00−15wsw248271 0.0 1021443
16:00−13wsw388877 0.3 1017795
19:00−15wsw3697100 0.4 1016237
22:00−18ssw239799 0.5 101574